This is the latest recevied weather packets stored in our database for station/object KD0RIH. If no packets are shown the sender has not sent any weather packets the latest 10 day(s).
| Time | Temp. | Humidity | Pressure | Rain* | Wind** | Luminosity | Snow |
|---|---|---|---|---|---|---|---|
| 1776946614 | 17.78° C | 82% | 1008.2 hPa | 0 mm | - | 91 W/m² | - |
| 1776946311 | 17.78° C | 82% | 1008 hPa | 0 mm | - | 56 W/m² | - |
| 1776946009 | 17.78° C | 82% | 1008.3 hPa | 0 mm | - | 51 W/m² | - |
| 1776945705 | 17.78° C | 83% | 1008.4 hPa | 0 mm | - | 49 W/m² | - |
| 1776945402 | 17.78° C | 83% | 1008.4 hPa | 0 mm | - | 33 W/m² | - |
| 1776945098 | 17.78° C | 83% | 1008.3 hPa | 0 mm | - | 27 W/m² | - |
| 1776944792 | 17.78° C | 83% | 1008.3 hPa | 0 mm | - | 21 W/m² | - |
| 1776944489 | 17.22° C | 83% | 1008.4 hPa | 0 mm | - | 16 W/m² | - |
| 1776944185 | 17.22° C | 83% | 1008.6 hPa | 0 mm | - | 11 W/m² | - |
| 1776943881 | 17.22° C | 83% | 1008.5 hPa | 0 mm | - | 7 W/m² | - |
| 1776943576 | 17.22° C | 83% | 1008.4 hPa | 0 mm | - | 4 W/m² | - |
| 1776943273 | 17.22° C | 83% | 1008.4 hPa | 0 mm | - | 2 W/m² | - |
| 1776942968 | 17.22° C | 83% | 1008.6 hPa | 0 mm | - | 1 W/m² | - |
| 1776942665 | 17.22° C | 83% | 1008.6 hPa | 0 mm | - | 0 W/m² | - |
| 1776942361 | 17.22° C | 83% | 1008.7 hPa | 0 mm | - | 0 W/m² | - |
| 1776942058 | 17.78° C | 83% | 1008.8 hPa | 0 mm | - | 0 W/m² | - |
| 1776941756 | 17.22° C | 83% | 1008.8 hPa | 0 mm | - | 0 W/m² | - |
| 1776941451 | 17.22° C | 83% | 1008.8 hPa | 0 mm | - | 0 W/m² | - |
| 1776941151 | 17.22° C | 83% | 1008.7 hPa | 0 mm | - | 0 W/m² | - |
| 1776940847 | 17.22° C | 83% | 1008.8 hPa | 0 mm | - | 0 W/m² | - |
| 1776940544 | 17.78° C | 82% | 1008.7 hPa | 0 mm | - | 0 W/m² | - |
| 1776940241 | 17.78° C | 83% | 1008.5 hPa | 0 mm | - | 0 W/m² | - |
| 1776939938 | 17.78° C | 83% | 1008.7 hPa | 0 mm | - | 0 W/m² | - |
| 1776939633 | 17.22° C | 83% | 1008.7 hPa | 0 mm | - | 0 W/m² | - |
| 1776939332 | 17.78° C | 82% | 1008.8 hPa | 0 mm | - | 0 W/m² | - |
* Rain latest hour (hover to see other rain measurements)
** Current wind speed in m/s (hover to see current wind gust speed)